Time,TemperatureF,DewpointF,PressureIn,WindDirection,WindDirectionDegrees,WindSpeedMPH,WindSpeedGustMPH,Humidity,HourlyPrecipIn,Conditions,Clouds,dailyrainin,SoftwareType,DateUTC
2013-06-04 00:01:00,75.3,70.9,29.98,NW,315,0.0,0.0,86,0.00,,,0.00,WUHU216HW,2013-06-04 04:01:00,
2013-06-04 00:02:00,75.3,70.9,29.98,NW,315,0.0,0.0,86,0.00,,,0.00,WUHU216HW,2013-06-04 04:02:00,
2013-06-04 00:07:00,75.3,70.9,29.98,NW,315,0.0,0.0,86,0.00,,,0.00,WUHU216HW,2013-06-04 04:07:00,
2013-06-04 00:12:00,75.3,70.9,29.98,NW,315,0.0,0.0,86,0.00,,,0.00,WUHU216HW,2013-06-04 04:12:00,
2013-06-04 00:17:00,75.3,70.9,29.98,NW,315,0.0,0.0,86,0.00,,,0.00,WUHU216HW,2013-06-04 04:17:00,
2013-06-04 00:22:00,75.3,70.9,29.99,NW,315,0.0,0.0,86,0.00,,,0.00,WUHU216HW,2013-06-04 04:22:00,
2013-06-04 00:27:00,75.3,70.9,29.99,NW,315,0.0,0.0,86,0.00,,,0.00,WUHU216HW,2013-06-04 04:27:00,
2013-06-04 00:32:00,75.3,70.9,29.99,NW,315,0.0,0.0,86,0.00,,,0.00,WUHU216HW,2013-06-04 04:32:00,
2013-06-04 00:37:00,75.3,70.9,29.99,NW,315,0.0,0.0,86,0.00,,,0.00,WUHU216HW,2013-06-04 04:37:00,
2013-06-04 00:42:00,75.3,70.9,29.99,NW,315,0.0,0.0,86,0.00,,,0.00,WUHU216HW,2013-06-04 04:42:00,
2013-06-04 00:47:00,75.3,70.9,29.98,NW,315,0.0,0.0,86,0.00,,,0.00,WUHU216HW,2013-06-04 04:47:00,
2013-06-04 00:52:00,75.3,70.9,29.98,NW,315,0.0,0.0,86,0.00,,,0.00,WUHU216HW,2013-06-04 04:52:00,
2013-06-04 00:57:00,75.3,71.2,29.98,NW,315,0.0,0.0,87,0.00,,,0.00,WUHU216HW,2013-06-04 04:57:00,
2013-06-04 01:02:00,75.3,71.2,29.97,NW,315,0.0,0.0,87,0.00,,,0.00,WUHU216HW,2013-06-04 05:02:00,
2013-06-04 01:07:00,75.3,71.2,29.97,NW,315,0.0,0.0,87,0.00,,,0.00,WUHU216HW,2013-06-04 05:07:00,
2013-06-04 01:12:00,75.3,71.2,29.97,NW,315,0.0,0.0,87,0.00,,,0.00,WUHU216HW,2013-06-04 05:12:00,
2013-06-04 01:17:00,75.3,71.2,29.97,NW,315,0.0,0.0,87,0.00,,,0.00,WUHU216HW,2013-06-04 05:17:00,
2013-06-04 01:22:00,75.2,71.1,29.97,NW,315,0.0,0.0,87,0.00,,,0.00,WUHU216HW,2013-06-04 05:22:00,
2013-06-04 01:27:00,75.2,71.1,29.96,NW,315,0.0,0.0,87,0.00,,,0.00,WUHU216HW,2013-06-04 05:27:00,
2013-06-04 01:32:00,75.2,71.1,29.96,NW,315,0.0,0.0,87,0.00,,,0.00,WUHU216HW,2013-06-04 05:32:00,
2013-06-04 01:37:00,75.3,71.2,29.96,NW,315,0.0,0.0,87,0.00,,,0.00,WUHU216HW,2013-06-04 05:37:00,
2013-06-04 01:42:00,75.3,71.2,29.96,NW,315,0.0,0.0,87,0.00,,,0.00,WUHU216HW,2013-06-04 05:42:00,
2013-06-04 01:47:00,75.3,71.2,29.96,NW,315,0.0,0.0,87,0.00,,,0.00,WUHU216HW,2013-06-04 05:47:00,
2013-06-04 01:52:00,75.3,71.1,29.96,NW,315,0.0,0.0,87,0.00,,,0.00,WUHU216HW,2013-06-04 05:52:00,
2013-06-04 01:57:00,75.3,71.2,29.96,NW,315,0.0,0.0,87,0.00,,,0.00,WUHU216HW,2013-06-04 05:57:00,
2013-06-04 02:02:00,75.2,71.1,29.96,NW,315,0.0,0.0,87,0.00,,,0.00,WUHU216HW,2013-06-04 06:02:00,
2013-06-04 02:07:00,75.3,71.2,29.95,NW,315,0.0,0.0,87,0.00,,,0.00,WUHU216HW,2013-06-04 06:07:00,
2013-06-04 02:12:00,75.3,71.2,29.95,NW,315,0.0,0.0,87,0.00,,,0.00,WUHU216HW,2013-06-04 06:12:00,
2013-06-04 02:17:00,75.3,71.1,29.95,NW,315,0.0,0.0,87,0.00,,,0.00,WUHU216HW,2013-06-04 06:17:00,
2013-06-04 02:22:00,75.2,71.1,29.95,NW,315,0.0,0.0,87,0.00,,,0.00,WUHU216HW,2013-06-04 06:22:00,
2013-06-04 02:27:00,75.2,71.1,29.95,NW,315,0.0,0.0,87,0.00,,,0.00,WUHU216HW,2013-06-04 06:27:00,
2013-06-04 02:32:00,75.2,71.1,29.95,NW,315,0.0,0.0,87,0.00,,,0.00,WUHU216HW,2013-06-04 06:32:00,
2013-06-04 02:37:00,75.0,70.9,29.95,NW,315,0.0,0.0,87,0.00,,,0.00,WUHU216HW,2013-06-04 06:37:00,
2013-06-04 02:42:00,75.0,70.9,29.95,NW,315,0.0,0.0,87,0.00,,,0.00,WUHU216HW,2013-06-04 06:42:00,
2013-06-04 02:47:00,75.0,70.9,29.95,NW,315,0.0,0.0,87,0.00,,,0.00,WUHU216HW,2013-06-04 06:47:00,
2013-06-04 02:52:00,75.0,70.9,29.94,NW,315,0.0,0.0,87,0.00,,,0.00,WUHU216HW,2013-06-04 06:52:00,
2013-06-04 02:57:00,75.0,70.9,29.94,NW,315,0.0,0.0,87,0.00,,,0.00,WUHU216HW,2013-06-04 06:57:00,
2013-06-04 03:02:00,75.0,70.9,29.94,NW,315,0.0,0.0,87,0.00,,,0.00,WUHU216HW,2013-06-04 07:02:00,
2013-06-04 03:07:00,75.0,70.9,29.94,NW,315,0.0,0.0,87,0.00,,,0.00,WUHU216HW,2013-06-04 07:07:00,
2013-06-04 03:12:00,75.0,70.9,29.94,NW,315,0.0,0.0,87,0.00,,,0.00,WUHU216HW,2013-06-04 07:12:00,
2013-06-04 03:17:00,74.8,70.7,29.94,NW,315,0.0,0.0,87,0.00,,,0.00,WUHU216HW,2013-06-04 07:17:00,
2013-06-04 03:22:00,74.8,70.7,29.94,NW,315,0.0,0.0,87,0.00,,,0.00,WUHU216HW,2013-06-04 07:22:00,
2013-06-04 03:27:00,74.8,70.7,29.94,NW,315,0.0,0.0,87,0.00,,,0.00,WUHU216HW,2013-06-04 07:27:00,
2013-06-04 03:32:00,74.8,70.7,29.93,NW,315,0.0,0.0,87,0.00,,,0.00,WUHU216HW,2013-06-04 07:32:00,
2013-06-04 03:37:00,74.8,70.7,29.93,NW,315,0.0,0.0,87,0.00,,,0.00,WUHU216HW,2013-06-04 07:37:00,
2013-06-04 03:42:00,74.8,70.7,29.93,NW,315,0.0,0.0,87,0.00,,,0.00,WUHU216HW,2013-06-04 07:42:00,
2013-06-04 03:47:00,74.6,70.5,29.93,NW,315,0.0,0.0,87,0.00,,,0.00,WUHU216HW,2013-06-04 07:47:00,
2013-06-04 03:52:00,74.4,70.3,29.94,NW,315,0.0,0.0,87,0.00,,,0.00,WUHU216HW,2013-06-04 07:52:00,
2013-06-04 03:57:00,74.4,70.3,29.94,NW,315,0.0,0.0,87,0.00,,,0.00,WUHU216HW,2013-06-04 07:57:00,
2013-06-04 04:02:00,74.4,70.3,29.93,NW,315,0.0,0.0,87,0.00,,,0.00,WUHU216HW,2013-06-04 08:02:00,
2013-06-04 04:07:00,74.3,70.2,29.93,NW,315,0.0,0.0,87,0.00,,,0.00,WUHU216HW,2013-06-04 08:07:00,
2013-06-04 04:12:00,74.3,70.2,29.93,NW,315,0.0,0.0,87,0.00,,,0.00,WUHU216HW,2013-06-04 08:12:00,
2013-06-04 04:17:00,74.1,70.3,29.93,NW,315,0.0,0.0,88,0.00,,,0.00,WUHU216HW,2013-06-04 08:17:00,
2013-06-04 04:22:00,74.1,70.3,29.93,NNW,338,0.0,0.0,88,0.00,,,0.00,WUHU216HW,2013-06-04 08:22:00,
2013-06-04 04:27:00,74.1,70.3,29.93,SSW,203,0.0,0.0,88,0.00,,,0.00,WUHU216HW,2013-06-04 08:27:00,
2013-06-04 04:32:00,74.1,70.3,29.93,South,180,3.1,3.1,88,0.00,,,0.00,WUHU216HW,2013-06-04 08:32:00,
2013-06-04 04:37:00,74.1,70.7,29.94,South,180,0.8,3.1,89,0.00,,,0.00,WUHU216HW,2013-06-04 08:37:00,
2013-06-04 04:42:00,74.1,70.7,29.94,South,180,0.0,1.1,89,0.00,,,0.00,WUHU216HW,2013-06-04 08:42:00,
2013-06-04 04:47:00,74.1,70.7,29.94,SSW,203,5.1,5.1,89,0.00,,,0.00,WUHU216HW,2013-06-04 08:47:00,
2013-06-04 04:52:00,73.9,70.5,29.94,SSW,203,3.1,5.1,89,0.00,,,0.00,WUHU216HW,2013-06-04 08:52:00,
2013-06-04 04:57:00,73.9,70.5,29.94,SSW,203,0.0,6.0,89,0.00,,,0.00,WUHU216HW,2013-06-04 08:57:00,
2013-06-04 05:02:00,73.9,70.5,29.94,NW,315,0.0,6.0,89,0.00,,,0.00,WUHU216HW,2013-06-04 09:02:00,
2013-06-04 05:07:00,73.9,70.5,29.94,SSW,203,1.1,3.3,89,0.00,,,0.00,WUHU216HW,2013-06-04 09:07:00,
2013-06-04 05:12:00,73.9,70.5,29.94,SSW,203,0.0,3.3,89,0.00,,,0.00,WUHU216HW,2013-06-04 09:12:00,
2013-06-04 05:17:00,73.9,70.5,29.94,SSW,203,0.0,1.5,89,0.00,,,0.00,WUHU216HW,2013-06-04 09:17:00,
2013-06-04 05:22:00,73.9,70.5,29.94,SSW,203,0.0,1.5,89,0.00,,,0.00,WUHU216HW,2013-06-04 09:22:00,
2013-06-04 05:27:00,73.9,70.5,29.94,SSW,203,0.0,0.6,89,0.00,,,0.00,WUHU216HW,2013-06-04 09:27:00,
2013-06-04 05:32:00,73.9,70.5,29.93,SSW,203,0.0,0.0,89,0.00,,,0.00,WUHU216HW,2013-06-04 09:32:00,
2013-06-04 05:37:00,73.9,70.5,29.94,SSW,203,0.0,1.5,89,0.00,,,0.00,WUHU216HW,2013-06-04 09:37:00,
2013-06-04 05:42:00,73.9,70.5,29.93,SSW,203,3.1,3.1,89,0.00,,,0.00,WUHU216HW,2013-06-04 09:42:00,
2013-06-04 05:47:00,73.7,70.3,29.94,SSW,203,0.0,3.1,89,0.00,,,0.00,WUHU216HW,2013-06-04 09:47:00,
2013-06-04 05:52:00,73.7,70.0,29.94,SSW,203,0.0,1.5,88,0.00,,,0.00,WUHU216HW,2013-06-04 09:52:00,
2013-06-04 05:57:00,73.7,70.0,29.93,SSW,203,0.0,0.0,88,0.00,,,0.00,WUHU216HW,2013-06-04 09:57:00,
2013-06-04 06:02:00,73.5,69.8,29.94,SSW,203,0.0,0.0,88,0.00,,,0.00,WUHU216HW,2013-06-04 10:02:00,
2013-06-04 06:07:00,73.5,69.8,29.93,SSW,203,0.0,0.0,88,0.00,,,0.00,WUHU216HW,2013-06-04 10:07:00,
2013-06-04 06:12:00,73.5,69.8,29.94,SSW,203,0.0,0.0,88,0.00,,,0.00,WUHU216HW,2013-06-04 10:12:00,
2013-06-04 06:17:00,73.4,69.6,29.94,SSW,203,0.0,0.0,88,0.00,,,0.00,WUHU216HW,2013-06-04 10:17:00,
2013-06-04 06:22:00,73.4,69.4,29.93,SSW,203,0.0,0.0,88,0.00,,,0.00,WUHU216HW,2013-06-04 10:22:00,
2013-06-04 06:27:00,73.2,69.4,29.94,SSW,203,0.0,0.0,88,0.00,,,0.00,WUHU216HW,2013-06-04 10:27:00,
2013-06-04 06:32:00,73.2,69.4,29.94,SSW,203,0.0,0.0,88,0.00,,,0.00,WUHU216HW,2013-06-04 10:32:00,
2013-06-04 06:37:00,73.2,69.8,29.94,SSW,203,0.0,0.0,89,0.00,,,0.00,WUHU216HW,2013-06-04 10:37:00,
2013-06-04 06:42:00,73.2,69.8,29.94,SSW,203,0.0,0.0,89,0.00,,,0.00,WUHU216HW,2013-06-04 10:42:00,
2013-06-04 06:47:00,73.2,69.8,29.94,SSW,203,0.0,0.0,89,0.00,,,0.00,WUHU216HW,2013-06-04 10:47:00,
2013-06-04 06:52:00,73.2,69.8,29.94,SSW,203,0.0,0.0,89,0.00,,,0.00,WUHU216HW,2013-06-04 10:52:00,
2013-06-04 06:57:00,73.2,69.4,29.94,SSW,203,0.0,0.0,88,0.00,,,0.00,WUHU216HW,2013-06-04 10:57:00,
2013-06-04 07:02:00,73.2,69.8,29.94,SSW,203,0.0,0.0,89,0.00,,,0.00,WUHU216HW,2013-06-04 11:02:00,
2013-06-04 07:07:00,73.2,69.8,29.94,SSW,203,0.0,0.0,89,0.00,,,0.00,WUHU216HW,2013-06-04 11:07:00,
2013-06-04 07:12:00,73.2,69.8,29.94,SSW,203,0.0,0.0,89,0.00,,,0.00,WUHU216HW,2013-06-04 11:12:00,
2013-06-04 07:17:00,73.2,69.8,29.94,SSW,203,0.0,0.0,89,0.00,,,0.00,WUHU216HW,2013-06-04 11:17:00,
2013-06-04 07:22:00,73.4,69.9,29.94,SSW,203,0.0,0.0,89,0.00,,,0.00,WUHU216HW,2013-06-04 11:22:00,
2013-06-04 07:27:00,73.4,69.9,29.95,SSW,203,0.0,0.0,89,0.00,,,0.00,WUHU216HW,2013-06-04 11:27:00,
2013-06-04 07:32:00,73.5,70.1,29.95,SSW,203,0.0,0.0,89,0.00,,,0.00,WUHU216HW,2013-06-04 11:32:00,
2013-06-04 07:37:00,73.5,70.1,29.95,SSW,203,0.0,0.0,89,0.00,,,0.00,WUHU216HW,2013-06-04 11:37:00,
2013-06-04 07:42:00,73.5,70.1,29.95,SSW,203,0.0,0.0,89,0.00,,,0.00,WUHU216HW,2013-06-04 11:42:00,
2013-06-04 07:47:00,73.7,70.3,29.95,SSW,203,0.0,0.0,89,0.00,,,0.00,WUHU216HW,2013-06-04 11:47:00,
2013-06-04 07:52:00,73.7,70.3,29.95,SSW,203,0.0,0.0,89,0.00,,,0.00,WUHU216HW,2013-06-04 11:52:00,
2013-06-04 07:57:00,73.7,70.3,29.96,SSW,203,0.0,0.0,89,0.00,,,0.00,WUHU216HW,2013-06-04 11:57:00,
2013-06-04 08:02:00,73.7,70.3,29.96,SSW,203,0.0,0.0,89,0.00,,,0.00,WUHU216HW,2013-06-04 12:02:00,
2013-06-04 08:07:00,73.9,70.5,29.96,SSW,203,0.0,0.0,89,0.00,,,0.00,WUHU216HW,2013-06-04 12:07:00,
2013-06-04 08:12:00,73.9,70.7,29.96,SSW,203,0.0,2.6,89,0.00,,,0.00,WUHU216HW,2013-06-04 12:12:00,
2013-06-04 08:17:00,74.1,70.7,29.96,NNW,338,0.0,2.6,89,0.00,,,0.00,WUHU216HW,2013-06-04 12:17:00,
2013-06-04 08:22:00,74.1,70.3,29.96,NNW,338,0.0,2.2,88,0.00,,,0.00,WUHU216HW,2013-06-04 12:22:00,
2013-06-04 08:27:00,74.3,70.5,29.96,NW,315,3.1,3.1,88,0.00,,,0.00,WUHU216HW,2013-06-04 12:27:00,
2013-06-04 08:32:00,74.4,70.7,29.97,SW,225,0.0,3.1,88,0.00,,,0.00,WUHU216HW,2013-06-04 12:32:00,
2013-06-04 08:38:00,74.6,70.9,29.97,NW,315,0.0,3.5,88,0.00,,,0.00,WUHU216HW,2013-06-04 12:38:00,
2013-06-04 08:43:00,74.8,70.7,29.97,SW,225,2.0,3.5,87,0.00,,,0.00,WUHU216HW,2013-06-04 12:43:00,
2013-06-04 08:48:00,75.0,70.9,29.97,South,180,5.8,5.8,87,0.00,,,0.00,WUHU216HW,2013-06-04 12:48:00,
2013-06-04 08:53:00,75.3,70.9,29.97,South,180,4.0,5.8,86,0.00,,,0.00,WUHU216HW,2013-06-04 12:53:00,
2013-06-04 08:58:00,75.7,71.2,29.97,SW,225,3.3,5.1,86,0.00,,,0.00,WUHU216HW,2013-06-04 12:58:00,
2013-06-04 09:03:00,76.1,71.6,29.97,NW,315,0.0,4.0,86,0.00,,,0.00,WUHU216HW,2013-06-04 13:03:00,
2013-06-04 09:08:00,76.2,71.4,29.98,NW,315,3.3,4.0,85,0.00,,,0.00,WUHU216HW,2013-06-04 13:08:00,
2013-06-04 09:13:00,76.6,71.7,29.98,SSW,203,4.0,8.9,85,0.00,,,0.00,WUHU216HW,2013-06-04 13:13:00,
2013-06-04 09:18:00,76.8,71.6,29.98,SW,225,2.6,8.9,84,0.00,,,0.00,WUHU216HW,2013-06-04 13:18:00,
2013-06-04 09:23:00,77.1,71.9,29.99,SW,225,2.2,6.7,84,0.00,,,0.00,WUHU216HW,2013-06-04 13:23:00,
2013-06-04 09:28:00,77.3,71.7,29.99,NW,315,0.8,6.7,83,0.00,,,0.00,WUHU216HW,2013-06-04 13:28:00,
2013-06-04 09:33:00,77.5,71.9,29.99,NW,315,0.0,4.0,83,0.00,,,0.00,WUHU216HW,2013-06-04 13:33:00,
2013-06-04 09:38:00,77.5,71.9,29.99,NW,315,1.3,2.4,83,0.00,,,0.00,WUHU216HW,2013-06-04 13:38:00,
2013-06-04 09:43:00,77.7,72.1,29.99,NW,315,0.0,3.1,83,0.00,,,0.00,WUHU216HW,2013-06-04 13:43:00,
2013-06-04 09:48:00,77.9,72.3,29.99,NW,315,1.7,3.1,83,0.00,,,0.00,WUHU216HW,2013-06-04 13:48:00,
2013-06-04 09:53:00,78.0,72.1,29.99,NW,315,0.0,2.4,82,0.00,,,0.00,WUHU216HW,2013-06-04 13:53:00,
2013-06-04 09:58:00,78.0,72.1,29.99,NW,315,0.0,2.4,82,0.00,,,0.00,WUHU216HW,2013-06-04 13:58:00,
2013-06-04 10:03:00,78.4,72.5,29.99,NW,315,0.0,2.0,82,0.00,,,0.00,WUHU216HW,2013-06-04 14:03:00,
2013-06-04 10:08:00,78.6,72.3,29.99,NW,315,4.4,4.4,81,0.00,,,0.00,WUHU216HW,2013-06-04 14:08:00,
2013-06-04 10:13:00,78.8,72.5,29.99,NW,315,2.9,4.4,81,0.00,,,0.00,WUHU216HW,2013-06-04 14:13:00,
2013-06-04 10:18:00,78.9,72.6,29.99,NW,315,0.0,3.1,81,0.00,,,0.00,WUHU216HW,2013-06-04 14:18:00,
2013-06-04 10:23:00,79.1,72.8,29.99,NW,315,2.4,3.1,81,0.00,,,0.00,WUHU216HW,2013-06-04 14:23:00,
2013-06-04 10:28:00,79.3,72.6,29.99,WSW,248,0.0,2.4,80,0.00,,,0.00,WUHU216HW,2013-06-04 14:28:00,
2013-06-04 10:33:00,79.5,72.8,29.99,WSW,248,0.0,1.5,80,0.00,,,0.00,WUHU216HW,2013-06-04 14:33:00,
2013-06-04 10:38:00,79.7,72.6,29.99,WSW,248,1.7,3.3,79,0.00,,,0.00,WUHU216HW,2013-06-04 14:38:00,
2013-06-04 10:43:00,79.8,72.8,29.99,SE,135,3.8,5.1,79,0.00,,,0.00,WUHU216HW,2013-06-04 14:43:00,
2013-06-04 10:48:00,80.0,73.0,29.99,SSW,203,2.4,5.1,79,0.00,,,0.00,WUHU216HW,2013-06-04 14:48:00,
2013-06-04 10:53:00,80.2,73.1,29.99,SSW,203,0.0,2.4,79,0.00,,,0.00,WUHU216HW,2013-06-04 14:53:00,
2013-06-04 10:58:00,80.2,72.7,30.00,NW,315,2.6,5.1,78,0.00,,,0.00,WUHU216HW,2013-06-04 14:58:00,
2013-06-04 11:03:00,80.2,72.7,30.00,NW,315,2.6,5.1,78,0.00,,,0.00,WUHU216HW,2013-06-04 15:03:00,
2013-06-04 11:08:00,79.8,72.4,30.00,SSW,203,4.0,4.9,78,0.00,,,0.00,WUHU216HW,2013-06-04 15:08:00,
2013-06-04 11:13:00,79.7,72.2,30.01,SSW,203,1.7,4.9,78,0.00,,,0.00,WUHU216HW,2013-06-04 15:13:00,
2013-06-04 11:18:00,79.5,72.2,30.01,SE,135,0.8,3.5,78,0.00,,,0.00,WUHU216HW,2013-06-04 15:18:00,
2013-06-04 11:23:00,79.5,72.4,30.01,SSW,203,0.4,3.5,79,0.00,,,0.00,WUHU216HW,2013-06-04 15:23:00,
2013-06-04 11:28:00,79.3,71.8,30.01,SSW,203,3.3,3.5,78,0.00,,,0.00,WUHU216HW,2013-06-04 15:28:00,
2013-06-04 11:33:00,79.3,71.8,30.02,SSE,158,2.6,3.5,78,0.00,,,0.00,WUHU216HW,2013-06-04 15:33:00,
2013-06-04 11:38:00,79.3,72.2,30.02,SSW,203,3.5,3.5,79,0.00,,,0.00,WUHU216HW,2013-06-04 15:38:00,
2013-06-04 11:43:00,79.1,70.5,30.02,SE,135,11.6,11.6,75,0.00,,,0.00,WUHU216HW,2013-06-04 15:43:00,
2013-06-04 11:48:00,78.6,69.9,30.02,SE,135,2.2,11.6,75,0.00,,,0.00,WUHU216HW,2013-06-04 15:48:00,
2013-06-04 11:53:00,78.6,70.3,30.02,SE,135,5.1,6.7,76,0.00,,,0.00,WUHU216HW,2013-06-04 15:53:00,
2013-06-04 11:58:00,78.6,70.7,30.02,South,180,2.0,6.4,77,0.00,,,0.00,WUHU216HW,2013-06-04 15:58:00,
2013-06-04 12:03:00,78.6,70.7,30.02,SE,135,3.3,5.5,77,0.00,,,0.00,WUHU216HW,2013-06-04 16:03:00,
2013-06-04 12:08:00,78.4,70.9,30.02,South,180,0.0,6.7,78,0.00,,,0.00,WUHU216HW,2013-06-04 16:08:00,
2013-06-04 12:13:00,78.2,70.4,30.02,South,180,3.1,6.7,77,0.00,,,0.00,WUHU216HW,2013-06-04 16:13:00,
2013-06-04 12:18:00,78.0,70.2,30.02,SSE,158,4.2,4.9,77,0.00,,,0.00,WUHU216HW,2013-06-04 16:18:00,
2013-06-04 12:23:00,77.9,70.0,30.03,SSE,158,2.0,4.2,77,0.00,,,0.00,WUHU216HW,2013-06-04 16:23:00,
2013-06-04 12:28:00,77.7,69.8,30.03,SSE,158,0.0,3.3,77,0.00,,,0.00,WUHU216HW,2013-06-04 16:28:00,
2013-06-04 12:33:00,77.7,70.2,30.03,SE,135,0.0,8.7,78,0.00,,,0.00,WUHU216HW,2013-06-04 16:33:00,
2013-06-04 12:38:00,77.7,70.2,30.02,SSW,203,0.0,8.7,78,0.00,,,0.00,WUHU216HW,2013-06-04 16:38:00,
2013-06-04 12:43:00,77.9,70.8,30.03,SSW,203,4.2,4.2,79,0.00,,,0.00,WUHU216HW,2013-06-04 16:43:00,
2013-06-04 12:48:00,78.0,71.0,30.02,SSE,158,1.7,4.4,79,0.00,,,0.00,WUHU216HW,2013-06-04 16:48:00,
2013-06-04 12:53:00,78.2,70.8,30.02,SSW,203,1.7,4.4,78,0.00,,,0.00,WUHU216HW,2013-06-04 16:53:00,
2013-06-04 12:58:00,78.4,70.9,30.02,ENE,68,1.5,3.5,78,0.00,,,0.00,WUHU216HW,2013-06-04 16:58:00,
2013-06-04 13:03:00,78.6,71.1,30.02,SE,135,3.3,3.3,78,0.00,,,0.00,WUHU216HW,2013-06-04 17:03:00,
2013-06-04 13:08:00,78.6,71.1,30.02,East,90,2.0,3.8,78,0.00,,,0.00,WUHU216HW,2013-06-04 17:08:00,
2013-06-04 13:13:00,78.8,71.7,30.01,ESE,113,0.0,3.8,79,0.00,,,0.00,WUHU216HW,2013-06-04 17:13:00,
2013-06-04 13:18:00,79.1,72.1,30.01,ESE,113,0.6,3.1,79,0.00,,,0.00,WUHU216HW,2013-06-04 17:18:00,
2013-06-04 13:23:00,79.3,72.2,30.02,ENE,68,0.0,2.9,79,0.00,,,0.00,WUHU216HW,2013-06-04 17:23:00,
2013-06-04 13:28:00,79.5,72.4,30.01,East,90,4.4,4.4,79,0.00,,,0.00,WUHU216HW,2013-06-04 17:28:00,
2013-06-04 13:33:00,79.8,72.8,30.01,SSE,158,2.2,4.4,79,0.00,,,0.00,WUHU216HW,2013-06-04 17:33:00,
2013-06-04 13:38:00,80.2,73.5,30.00,SSE,158,0.4,2.6,80,0.00,,,0.00,WUHU216HW,2013-06-04 17:38:00,
2013-06-04 13:43:00,80.4,74.1,30.01,East,90,3.1,3.1,81,0.00,,,0.00,WUHU216HW,2013-06-04 17:43:00,
2013-06-04 13:48:00,80.7,74.1,30.01,SE,135,3.1,5.5,80,0.00,,,0.00,WUHU216HW,2013-06-04 17:48:00,
2013-06-04 13:53:00,80.9,73.4,30.01,SSE,158,1.1,5.5,78,0.00,,,0.00,WUHU216HW,2013-06-04 17:53:00,
2013-06-04 13:58:00,81.1,73.6,30.00,SSW,203,0.6,3.8,78,0.00,,,0.00,WUHU216HW,2013-06-04 17:58:00,
2013-06-04 14:03:00,81.3,73.4,30.00,ESE,113,6.7,6.7,77,0.00,,,0.00,WUHU216HW,2013-06-04 18:03:00,
2013-06-04 14:08:00,81.3,73.0,30.00,East,90,1.3,6.7,76,0.00,,,0.00,WUHU216HW,2013-06-04 18:08:00,
2013-06-04 14:13:00,81.6,73.3,29.99,WSW,248,0.0,5.5,76,0.00,,,0.00,WUHU216HW,2013-06-04 18:13:00,
2013-06-04 14:18:00,81.8,73.5,29.99,South,180,4.0,6.2,76,0.00,,,0.00,WUHU216HW,2013-06-04 18:18:00,
2013-06-04 14:23:00,82.0,73.3,29.99,ESE,113,1.1,6.2,75,0.00,,,0.00,WUHU216HW,2013-06-04 18:23:00,
2013-06-04 14:28:00,82.2,73.4,29.99,South,180,6.9,6.9,75,0.00,,,0.00,WUHU216HW,2013-06-04 18:28:00,
2013-06-04 14:33:00,82.2,73.4,29.98,East,90,0.0,6.9,75,0.00,,,0.00,WUHU216HW,2013-06-04 18:33:00,
2013-06-04 14:38:00,82.2,73.4,29.98,SSE,158,4.9,4.9,75,0.00,,,0.00,WUHU216HW,2013-06-04 18:38:00,
2013-06-04 14:43:00,82.2,73.0,29.98,ESE,113,1.3,4.9,74,0.00,,,0.00,WUHU216HW,2013-06-04 18:43:00,
2013-06-04 14:48:00,82.2,73.0,29.98,SSE,158,1.1,4.2,74,0.00,,,0.00,WUHU216HW,2013-06-04 18:48:00,
2013-06-04 14:53:00,82.4,72.8,29.98,ESE,113,4.4,6.2,73,0.00,,,0.00,WUHU216HW,2013-06-04 18:53:00,
2013-06-04 14:58:00,82.4,72.6,29.98,WSW,248,1.5,6.2,73,0.00,,,0.00,WUHU216HW,2013-06-04 18:58:00,
2013-06-04 15:03:00,82.2,72.6,29.98,SSE,158,3.5,3.5,73,0.00,,,0.00,WUHU216HW,2013-06-04 19:03:00,
2013-06-04 15:08:00,82.4,72.8,29.98,SSE,158,2.0,4.6,73,0.00,,,0.00,WUHU216HW,2013-06-04 19:08:00,
2013-06-04 15:13:00,82.5,73.0,29.97,ESE,113,1.5,4.6,73,0.00,,,0.00,WUHU216HW,2013-06-04 19:13:00,
2013-06-04 15:18:00,82.7,74.0,29.97,SE,135,2.0,4.0,75,0.00,,,0.00,WUHU216HW,2013-06-04 19:18:00,
2013-06-04 15:23:00,82.9,73.7,29.97,South,180,0.6,4.0,74,0.00,,,0.00,WUHU216HW,2013-06-04 19:23:00,
2013-06-04 15:28:00,83.3,73.5,29.97,East,90,0.0,4.0,73,0.00,,,0.00,WUHU216HW,2013-06-04 19:28:00,
2013-06-04 15:33:00,83.4,73.8,29.97,SSE,158,0.0,4.0,73,0.00,,,0.00,WUHU216HW,2013-06-04 19:33:00,
2013-06-04 15:38:00,83.6,74.0,29.97,East,90,2.6,3.1,73,0.00,,,0.00,WUHU216HW,2013-06-04 19:38:00,
2013-06-04 15:43:00,83.8,73.8,29.97,South,180,0.0,3.1,72,0.00,,,0.00,WUHU216HW,2013-06-04 19:43:00,
2013-06-04 15:48:00,84.0,74.0,29.97,WSW,248,4.0,7.8,72,0.00,,,0.00,WUHU216HW,2013-06-04 19:48:00,
2013-06-04 15:53:00,84.0,74.0,29.97,WSW,248,0.0,7.8,72,0.00,,,0.00,WUHU216HW,2013-06-04 19:53:00,
2013-06-04 15:58:00,84.0,73.6,29.97,East,90,3.3,6.4,71,0.00,,,0.00,WUHU216HW,2013-06-04 19:58:00,
2013-06-04 16:03:00,84.0,74.0,29.97,SE,135,2.4,6.4,72,0.00,,,0.00,WUHU216HW,2013-06-04 20:03:00,
2013-06-04 16:08:00,84.2,74.3,29.97,SE,135,2.2,5.8,72,0.00,,,0.00,WUHU216HW,2013-06-04 20:08:00,
2013-06-04 16:13:00,84.3,74.5,29.97,West,270,1.3,5.8,72,0.00,,,0.00,WUHU216HW,2013-06-04 20:13:00,
2013-06-04 16:18:00,84.7,74.7,29.96,West,270,0.0,6.0,72,0.00,,,0.00,WUHU216HW,2013-06-04 20:18:00,
2013-06-04 16:23:00,84.7,74.7,29.96,West,270,0.0,6.0,72,0.00,,,0.00,WUHU216HW,2013-06-04 20:23:00,
2013-06-04 16:28:00,84.9,74.5,29.96,WSW,248,0.0,2.6,71,0.00,,,0.00,WUHU216HW,2013-06-04 20:28:00,
2013-06-04 16:33:00,84.7,74.3,29.96,South,180,0.8,5.1,71,0.00,,,0.00,WUHU216HW,2013-06-04 20:33:00,
2013-06-04 16:38:00,84.7,74.7,29.96,South,180,2.6,5.1,72,0.00,,,0.00,WUHU216HW,2013-06-04 20:38:00,
2013-06-04 16:43:00,84.5,74.5,29.96,SSE,158,0.0,5.1,72,0.00,,,0.00,WUHU216HW,2013-06-04 20:43:00,
2013-06-04 16:48:00,84.3,73.9,29.96,SE,135,0.0,4.6,71,0.00,,,0.00,WUHU216HW,2013-06-04 20:48:00,
2013-06-04 16:53:00,84.0,74.0,29.96,South,180,6.2,6.2,72,0.00,,,0.00,WUHU216HW,2013-06-04 20:53:00,
2013-06-04 16:58:00,83.8,73.8,29.96,South,180,1.5,6.2,72,0.00,,,0.00,WUHU216HW,2013-06-04 20:58:00,
2013-06-04 17:03:00,83.4,73.4,29.96,NW,315,2.0,2.4,72,0.00,,,0.00,WUHU216HW,2013-06-04 21:03:00,
2013-06-04 17:08:00,83.1,73.1,29.96,SSW,203,2.9,2.9,72,0.00,,,0.00,WUHU216HW,2013-06-04 21:08:00,
2013-06-04 17:13:00,82.9,72.9,29.96,SSE,158,1.1,3.3,72,0.00,,,0.00,WUHU216HW,2013-06-04 21:13:00,
2013-06-04 17:18:00,82.7,73.1,29.96,SSE,158,4.6,4.6,73,0.00,,,0.00,WUHU216HW,2013-06-04 21:18:00,
2013-06-04 17:23:00,82.5,73.0,29.96,South,180,2.2,4.6,73,0.00,,,0.00,WUHU216HW,2013-06-04 21:23:00,
2013-06-04 17:28:00,82.4,73.2,29.96,SSE,158,2.6,3.8,74,0.00,,,0.00,WUHU216HW,2013-06-04 21:28:00,
2013-06-04 17:33:00,82.2,72.6,29.96,SSE,158,1.7,3.8,73,0.00,,,0.00,WUHU216HW,2013-06-04 21:33:00,
2013-06-04 17:38:00,82.2,73.0,29.96,SE,135,0.0,3.5,74,0.00,,,0.00,WUHU216HW,2013-06-04 21:38:00,
2013-06-04 17:43:00,82.0,72.9,29.96,ENE,68,1.1,1.1,74,0.00,,,0.00,WUHU216HW,2013-06-04 21:43:00,
2013-06-04 17:48:00,82.0,72.9,29.96,SE,135,0.0,2.6,74,0.00,,,0.00,WUHU216HW,2013-06-04 21:48:00,
2013-06-04 17:53:00,82.0,72.9,29.96,South,180,1.3,2.6,74,0.00,,,0.00,WUHU216HW,2013-06-04 21:53:00,
2013-06-04 17:58:00,81.8,73.1,29.96,East,90,0.0,2.2,75,0.00,,,0.00,WUHU216HW,2013-06-04 21:58:00,
2013-06-04 18:03:00,81.6,72.5,29.96,SE,135,0.0,3.1,75,0.00,,,0.00,WUHU216HW,2013-06-04 22:03:00,
2013-06-04 18:08:00,81.6,72.9,29.96,East,90,2.0,3.1,75,0.00,,,0.00,WUHU216HW,2013-06-04 22:08:00,
2013-06-04 18:13:00,81.6,72.9,29.96,East,90,0.0,2.0,75,0.00,,,0.00,WUHU216HW,2013-06-04 22:13:00,
2013-06-04 18:18:00,81.6,72.9,29.96,ENE,68,0.0,1.5,75,0.00,,,0.00,WUHU216HW,2013-06-04 22:18:00,
2013-06-04 18:23:00,81.6,72.9,29.96,East,90,0.0,1.5,75,0.00,,,0.00,WUHU216HW,2013-06-04 22:23:00,
2013-06-04 18:28:00,81.6,72.9,29.95,SSE,158,0.0,0.0,75,0.00,,,0.00,WUHU216HW,2013-06-04 22:28:00,
2013-06-04 18:33:00,81.6,72.9,29.95,SSE,158,0.0,0.0,75,0.00,,,0.00,WUHU216HW,2013-06-04 22:33:00,
2013-06-04 18:38:00,81.6,73.3,29.96,East,90,0.0,0.0,76,0.00,,,0.00,WUHU216HW,2013-06-04 22:38:00,
2013-06-04 18:43:00,81.5,72.8,29.96,East,90,0.0,0.0,75,0.00,,,0.00,WUHU216HW,2013-06-04 22:43:00,
2013-06-04 18:48:00,81.5,73.2,29.96,East,90,0.0,0.0,76,0.00,,,0.00,WUHU216HW,2013-06-04 22:48:00,
2013-06-04 18:53:00,81.3,73.0,29.96,East,90,0.0,1.7,76,0.00,,,0.00,WUHU216HW,2013-06-04 22:53:00,
2013-06-04 18:58:00,81.3,73.0,29.96,East,90,3.3,3.3,76,0.00,,,0.00,WUHU216HW,2013-06-04 22:58:00,
2013-06-04 19:03:00,81.3,73.0,29.96,ENE,68,0.0,3.3,76,0.00,,,0.00,WUHU216HW,2013-06-04 23:03:00,
2013-06-04 19:08:00,81.3,73.0,29.96,East,90,3.5,4.0,76,0.00,,,0.00,WUHU216HW,2013-06-04 23:08:00,
2013-06-04 19:13:00,81.3,73.0,29.96,ENE,68,2.2,4.0,76,0.00,,,0.00,WUHU216HW,2013-06-04 23:13:00,
2013-06-04 19:18:00,81.1,72.8,29.96,East,90,2.4,3.8,76,0.00,,,0.00,WUHU216HW,2013-06-04 23:18:00,
2013-06-04 19:23:00,81.1,72.8,29.97,East,90,0.0,3.8,76,0.00,,,0.00,WUHU216HW,2013-06-04 23:23:00,
2013-06-04 19:28:00,81.1,73.2,29.97,East,90,1.5,1.5,77,0.00,,,0.00,WUHU216HW,2013-06-04 23:28:00,
2013-06-04 19:33:00,80.9,73.0,29.97,East,90,0.0,1.5,77,0.00,,,0.00,WUHU216HW,2013-06-04 23:33:00,
2013-06-04 19:38:00,80.9,73.0,29.97,East,90,0.0,2.0,77,0.00,,,0.00,WUHU216HW,2013-06-04 23:38:00,
2013-06-04 19:43:00,80.7,72.9,29.98,East,90,0.0,2.0,77,0.00,,,0.00,WUHU216HW,2013-06-04 23:43:00,
2013-06-04 19:48:00,80.7,72.9,29.98,East,90,0.0,2.0,77,0.00,,,0.00,WUHU216HW,2013-06-04 23:48:00,
2013-06-04 19:53:00,80.6,72.7,29.98,East,90,0.0,2.0,77,0.00,,,0.00,WUHU216HW,2013-06-04 23:53:00,
2013-06-04 19:58:00,80.4,72.5,29.99,East,90,0.0,0.0,77,0.00,,,0.00,WUHU216HW,2013-06-04 23:58:00,
2013-06-04 20:03:00,80.4,72.5,29.99,East,90,0.0,2.4,77,0.00,,,0.00,WUHU216HW,2013-06-05 00:03:00,
2013-06-04 20:08:00,80.4,72.5,29.99,East,90,0.0,2.4,77,0.00,,,0.00,WUHU216HW,2013-06-05 00:08:00,
2013-06-04 20:13:00,80.2,72.3,29.99,East,90,0.0,2.0,77,0.00,,,0.00,WUHU216HW,2013-06-05 00:13:00,
2013-06-04 20:18:00,80.2,72.7,29.99,East,90,0.0,1.3,78,0.00,,,0.00,WUHU216HW,2013-06-05 00:18:00,
2013-06-04 20:23:00,80.2,72.7,29.99,East,90,0.0,2.6,78,0.00,,,0.00,WUHU216HW,2013-06-05 00:23:00,
2013-06-04 20:28:00,80.0,72.6,29.99,East,90,0.0,2.6,78,0.00,,,0.00,WUHU216HW,2013-06-05 00:28:00,
2013-06-04 20:33:00,80.0,72.6,29.99,East,90,1.3,1.3,78,0.00,,,0.00,WUHU216HW,2013-06-05 00:33:00,
2013-06-04 20:38:00,79.8,72.4,30.00,East,90,1.7,1.7,78,0.00,,,0.00,WUHU216HW,2013-06-05 00:38:00,
2013-06-04 20:43:00,79.8,72.4,30.00,East,90,0.4,2.0,78,0.00,,,0.00,WUHU216HW,2013-06-05 00:43:00,
2013-06-04 20:48:00,79.8,72.4,29.99,East,90,0.0,2.9,78,0.00,,,0.00,WUHU216HW,2013-06-05 00:48:00,
2013-06-04 20:53:00,79.8,72.8,29.99,East,90,1.1,2.9,79,0.00,,,0.00,WUHU216HW,2013-06-05 00:53:00,
2013-06-04 20:58:00,79.7,72.6,30.00,East,90,0.8,1.3,79,0.00,,,0.00,WUHU216HW,2013-06-05 00:58:00,
2013-06-04 21:03:00,79.7,72.6,30.00,NE,45,2.2,2.4,79,0.00,,,0.00,WUHU216HW,2013-06-05 01:03:00,
2013-06-04 21:08:00,79.5,72.4,30.00,ENE,68,5.5,5.5,79,0.00,,,0.00,WUHU216HW,2013-06-05 01:08:00,
2013-06-04 21:13:00,79.3,72.0,30.00,ENE,68,0.0,5.5,78,0.00,,,0.00,WUHU216HW,2013-06-05 01:13:00,
2013-06-04 21:18:00,79.3,71.4,29.99,ENE,68,0.0,6.2,77,0.00,,,0.00,WUHU216HW,2013-06-05 01:18:00,
2013-06-04 21:23:00,79.3,71.8,30.00,ENE,68,0.6,6.2,78,0.00,,,0.00,WUHU216HW,2013-06-05 01:23:00,
2013-06-04 21:28:00,79.1,71.7,30.00,East,90,0.0,3.3,78,0.00,,,0.00,WUHU216HW,2013-06-05 01:28:00,
2013-06-04 21:33:00,78.9,71.5,29.99,East,90,0.4,0.8,78,0.00,,,0.00,WUHU216HW,2013-06-05 01:33:00,
2013-06-04 21:38:00,78.9,71.5,30.00,East,90,0.0,1.7,78,0.00,,,0.00,WUHU216HW,2013-06-05 01:38:00,
2013-06-04 21:43:00,78.9,71.9,30.00,East,90,1.5,1.7,79,0.00,,,0.00,WUHU216HW,2013-06-05 01:43:00,
2013-06-04 21:48:00,78.6,71.1,29.99,ENE,68,3.1,3.1,78,0.00,,,0.00,WUHU216HW,2013-06-05 01:48:00,
2013-06-04 21:53:00,78.6,71.5,29.99,East,90,1.7,5.5,79,0.00,,,0.00,WUHU216HW,2013-06-05 01:53:00,
2013-06-04 21:58:00,78.6,71.5,29.99,East,90,1.7,5.5,79,0.00,,,0.00,WUHU216HW,2013-06-05 01:58:00,
2013-06-04 22:03:00,78.6,71.5,29.99,East,90,1.3,4.9,79,0.00,,,0.00,WUHU216HW,2013-06-05 02:03:00,
2013-06-04 22:08:00,78.6,71.5,29.99,ENE,68,3.5,4.0,79,0.00,,,0.00,WUHU216HW,2013-06-05 02:08:00,
2013-06-04 22:13:00,78.4,71.3,29.99,ENE,68,2.0,4.0,79,0.00,,,0.00,WUHU216HW,2013-06-05 02:13:00,
2013-06-04 22:18:00,78.4,71.7,29.99,ENE,68,2.0,4.0,80,0.00,,,0.00,WUHU216HW,2013-06-05 02:18:00,
2013-06-04 22:23:00,78.0,71.4,30.00,ENE,68,0.0,2.6,80,0.00,,,0.00,WUHU216HW,2013-06-05 02:23:00,
2013-06-04 22:28:00,78.0,71.4,30.00,ENE,68,2.9,2.9,80,0.00,,,0.00,WUHU216HW,2013-06-05 02:28:00,
2013-06-04 22:33:00,78.0,71.4,30.00,ENE,68,2.4,3.1,80,0.00,,,0.00,WUHU216HW,2013-06-05 02:33:00,
2013-06-04 22:38:00,77.9,71.6,30.00,ENE,68,1.1,3.3,81,0.00,,,0.00,WUHU216HW,2013-06-05 02:38:00,
2013-06-04 22:43:00,77.9,71.6,30.00,ENE,68,1.7,3.3,81,0.00,,,0.00,WUHU216HW,2013-06-05 02:43:00,
2013-06-04 22:48:00,77.7,71.4,30.00,ENE,68,2.4,3.8,81,0.00,,,0.00,WUHU216HW,2013-06-05 02:48:00,
2013-06-04 22:53:00,77.7,71.4,30.00,ENE,68,0.0,3.8,81,0.00,,,0.00,WUHU216HW,2013-06-05 02:53:00,
2013-06-04 22:58:00,77.7,71.4,30.00,ENE,68,0.0,2.6,81,0.00,,,0.00,WUHU216HW,2013-06-05 02:58:00,
2013-06-04 23:03:00,77.5,71.2,30.00,ENE,68,0.0,3.1,81,0.00,,,0.00,WUHU216HW,2013-06-05 03:03:00,
2013-06-04 23:08:00,77.5,71.2,30.00,ENE,68,2.0,3.1,81,0.00,,,0.00,WUHU216HW,2013-06-05 03:08:00,
2013-06-04 23:13:00,77.5,71.2,30.01,ENE,68,1.7,2.0,81,0.00,,,0.00,WUHU216HW,2013-06-05 03:13:00,
2013-06-04 23:18:00,77.3,71.0,30.00,ENE,68,1.1,2.0,81,0.00,,,0.00,WUHU216HW,2013-06-05 03:18:00,
2013-06-04 23:23:00,77.3,71.0,30.00,ENE,68,0.0,2.2,81,0.00,,,0.00,WUHU216HW,2013-06-05 03:23:00,
2013-06-04 23:28:00,77.3,71.4,30.00,ENE,68,0.0,2.2,82,0.00,,,0.00,WUHU216HW,2013-06-05 03:28:00,
2013-06-04 23:33:00,77.1,71.2,30.00,ENE,68,0.0,2.6,82,0.00,,,0.00,WUHU216HW,2013-06-05 03:33:00,
2013-06-04 23:38:00,77.1,71.2,30.00,ENE,68,0.0,2.6,82,0.00,,,0.00,WUHU216HW,2013-06-05 03:38:00,
2013-06-04 23:43:00,77.1,71.2,30.00,ENE,68,2.4,2.4,82,0.00,,,0.00,WUHU216HW,2013-06-05 03:43:00,
2013-06-04 23:48:00,77.0,71.0,30.00,ENE,68,0.0,2.4,82,0.00,,,0.00,WUHU216HW,2013-06-05 03:48:00,
2013-06-04 23:53:00,76.8,70.8,30.00,ENE,68,0.0,1.7,82,0.00,,,0.00,WUHU216HW,2013-06-05 03:53:00,
2013-06-04 23:58:00,76.8,70.8,30.00,ENE,68,0.0,1.7,82,0.00,,,0.00,WUHU216HW,2013-06-05 03:58:00,